MST,Max TemperatureF,Mean TemperatureF,Min TemperatureF,Max Dew PointF,MeanDew PointF,Min DewpointF,Max Humidity, Mean Humidity, Min Humidity, Max Sea Level PressureIn, Mean Sea Level PressureIn, Min Sea Level PressureIn, Max VisibilityMiles, Mean VisibilityMiles, Min VisibilityMiles, Max Wind SpeedMPH, Mean Wind SpeedMPH, Max Gust SpeedMPH,PrecipitationIn, CloudCover, Events, WindDirDegrees
2011-12-1,63,56,49,41,33,24,63,46,29,29.94,29.76,29.62,10,10,10,22,8,30,0.00,5,,325
2011-12-2,63,53,43,40,37,32,76,56,35,30.02,29.96,29.92,10,10,10,15,3,20,0.00,4,,339
2011-12-3,61,52,43,37,23,6,70,41,11,30.19,30.06,29.94,10,10,10,22,7,29,0.00,1,,330
2011-12-4,63,51,39,22,15,7,44,28,11,30.24,30.16,30.09,10,10,10,17,4,22,0.00,0,,344
2011-12-5,62,50,38,21,17,13,48,34,19,30.32,30.21,30.11,10,10,10,23,9,31,0.00,0,,1
2011-12-6,59,51,42,15,11,8,31,23,14,30.43,30.36,30.32,10,10,10,16,8,22,0.00,0,,359
2011-12-7,63,51,38,22,11,6,43,27,11,30.32,30.21,30.11,10,10,7,15,6,18,0.00,1,,1
2011-12-8,66,53,39,25,18,15,45,30,15,30.15,30.10,30.05,10,10,10,10,5,14,0.00,2,,17
2011-12-9,70,54,38,28,23,20,54,36,17,30.21,30.14,30.10,10,10,10,10,4,13,0.00,0,,20
2011-12-10,72,57,41,26,22,17,53,33,13,30.14,30.07,30.00,10,10,10,12,4,15,0.00,0,,21
2011-12-11,67,53,39,46,30,23,66,43,19,29.99,29.91,29.83,10,10,10,9,3,12,0.00,0,,155
2011-12-12,63,57,50,49,44,37,80,66,51,29.86,29.80,29.75,10,10,10,18,4,23,T,5,Rain,30
2011-12-13,57,53,48,49,47,45,93,80,67,30.05,29.90,29.84,10,6,2,16,7,18,1.12,7,Rain,14
2011-12-14,61,51,40,48,42,38,100,78,55,30.25,30.17,30.07,10,4,0,8,3,10,0.01,2,Fog,355
2011-12-15,63,52,41,43,40,36,89,63,36,30.22,30.11,30.02,10,10,7,9,3,12,0.00,1,,35
2011-12-16,64,56,48,42,37,34,80,56,31,30.04,30.01,29.97,10,10,10,21,9,25,T,4,Rain,359
2011-12-17,65,55,44,48,42,36,86,61,36,30.13,30.08,30.02,10,10,10,21,4,25,T,4,,156
2011-12-18,62,55,47,49,45,41,93,71,49,30.16,30.09,30.03,10,10,8,13,4,17,0.01,4,Rain,225
2011-12-19,64,54,43,46,42,37,89,64,39,30.09,30.03,29.99,10,10,10,10,4,13,0.01,1,,173
2011-12-20,64,56,47,45,41,36,86,63,39,30.04,29.99,29.93,10,10,10,14,5,15,0.00,2,,13
2011-12-21,66,55,43,36,33,26,70,47,24,30.04,29.99,29.95,10,10,10,9,3,12,0.00,0,,25
2011-12-22,60,53,45,35,17,4,65,38,10,30.32,30.20,30.04,10,10,10,25,11,33,0.00,0,,5
2011-12-23,64,56,47,17,7,3,28,15,9,30.44,30.36,30.32,10,10,10,23,12,32,0.00,0,,348
2011-12-24,67,55,42,22,13,6,40,25,9,30.42,30.36,30.32,10,10,10,10,4,14,0.00,0,,29
2011-12-25,69,55,40,24,19,11,46,28,11,30.39,30.31,30.23,10,10,10,13,6,15,0.00,0,,23
2011-12-26,68,56,43,28,24,20,43,31,19,30.29,30.24,30.21,10,10,10,14,7,17,0.00,0,,18
2011-12-27,69,57,44,26,23,16,47,31,16,30.25,30.21,30.17,10,10,10,15,7,18,0.00,1,,16
2011-12-28,72,57,42,27,21,14,55,32,11,30.28,30.20,30.14,10,10,10,12,5,15,0.00,0,,24
2011-12-29,75,61,46,32,22,13,41,25,9,30.12,30.05,29.97,10,10,9,13,6,15,0.00,0,,21
2011-12-30,75,63,50,40,31,24,55,37,19,30.08,30.00,29.96,10,10,10,14,5,17,0.00,0,,38
2011-12-31,78,64,50,35,30,25,59,37,15,30.12,30.04,29.98,10,10,10,13,6,15,0.00,0,,12